User: anonymous   Login
Location: Pian di Sc�
(43.6333°N, 11.5500°E)
Time: 15:42:45
(UTC+00:00)
Language:

MSX - Orbit

View from above orbital plane
View from above orbital plane
View from above satellite
View from above satellite

Ground track
Ground track

The orbit data is extracted from the following two-line orbital elements,

1 23851U 96024A   20292.88997843 +.00000246 +00000-0 +20226-3 0  9998
2 23851 098.7951 253.0765 0007553 174.5637 185.5610 13.98088923249452
Epoch (UTC): 18 October 2020 21:21:34
Eccentricity: 0.0007553
inclination: 98.7951°
perigee height: 895 km
apogee height: 906 km
right ascension of ascending node: 253.0765°
argument of perigee: 174.5637°
revolutions per day: 13.98088923
mean anomaly at epoch: 185.5610°
orbit number at epoch: 24945

The dashed part of the orbit path shows where the satellite is in the earth's shadow,  

DLR